Powrót do katalogu

CZ-6A DEB

AktywnyPO
NORAD 61493·DEBRIS·🇨🇳 China

Wystrzelony Aug 6, 2024 z Taiyuan Satellite Launch Center

Loading…

Następne Przeloty (najbliższe 24 godziny)

TLE

ŚwieżeSource: Space-Track

Epoka: Sep 14, 2026, 23:25 UTC

1 61493U 24140ABB 26257.97582893  .00000238  00000-0  10361-3 0  9994
2 61493  89.0006 264.9478 0043388 222.9070 136.8733 14.20487522103332

Śledź CZ-6A DEB w czasie rzeczywistym z AllMySat

Download on the App Store